Regional Weather Roundup
Issued by NWS

Home | Current Version | Previous Version | Text Only | Print | Product List | Glossary On
Versions: 1 2 3 4 5 6 7 8 9 10 11 12 13 14 15 16 17 18 19 20 21 22 23 24 25 26 27
000
ASUS45 KBOU 290907
RWRCO

WEATHER ROUNDUP FOR COLORADO
NATIONAL WEATHER SERVICE DENVER/BOULDER CO
300 AM MDT MON AUG 29 2016

NOTE: "FAIR" INDICATES FEW OR NO CLOUDS BELOW 12000 FEET WITH NO
SIGNIFICANT WEATHER AND/OR OBSTRUCTIONS TO VISIBILITY.

COZ001>005-013-030-031-291000-
...NORTHWEST COLORADO...

CITY           SKY/WX    TMP DP  RH WIND       PRES   REMARKS
CRAIG          FAIR      49  40  71 SE5       30.33R
HAYDEN         FAIR      52  36  54 E8        30.35R
MEEKER         FAIR      49  41  74 E3        30.35R
MOUNT WERNER   NOT AVBL
STEAMBOAT SPGS FAIR      45  37  73 CALM      30.38R
WALDEN         FAIR      37  32  81 SE8       30.47R
$$

COZ006>008-011-291000-
...WEST CENTRAL VALLEYS...

CITY           SKY/WX    TMP DP  RH WIND       PRES   REMARKS
GRAND JUNCTION FAIR      60  45  57 SE9       30.24R
MONTROSE       FAIR      52  45  77 MISG      30.32S
EAGLE          FAIR      52  48  87 CALM      30.41S
RIFLE          FAIR      55  49  80 CALM      30.31R
DELTA          NOT AVBL
NUCLA          FAIR     N/A N/A N/A SE3       30.34R
$$

COZ017>023-064>068-291000-
...SOUTHWEST COLORADO...

CITY           SKY/WX    TMP DP  RH WIND       PRES   REMARKS
DURANGO        FAIR      47  41  80 N3        30.33R
CORTEZ         FAIR      49  45  86 CALM      30.29R
PAGOSA SPRINGS MOCLDY    57  37  46 NE5       30.39R
TELLURIDE      FAIR      44  41  91 SE6       30.48S
WOLF CREEK PAS CLOUDY    36  36 100 NE30      30.66R
$$

COZ009-010-012-014-032>034-037-058>063-291000-
...CENTRAL COLORADO...

CITY           SKY/WX    TMP DP  RH WIND       PRES   REMARKS
ASPEN          FAIR      48  40  73 CALM      30.41S
BUENA VISTA    CLOUDY    49  46  88 SW6       30.50R
COPPER MTN     FAIR      46  32  57 E9        30.66F
BERTHOUD PASS  FAIR      41  28  60 E16G24    30.69F
COTTONWOOD PAS CLOUDY    45  43  93 CALM      30.59R
GUNNISON       FAIR      46  39  76 N3        30.47S
KREMMLING      FAIR      46  41  81 CALM      30.46R
LEADVILLE      FAIR      41  39  93 S5        30.56R
MONARCH PASS   LGT RAIN  36  34  93 NE25G32   30.73F VSB<1/4
SALIDA         CLOUDY    53  48  84 S5        30.56R
SUNLIGHT       FAIR      45  37  76 W7        30.61R
WILKERSON PASS CLOUDY    37  36  93 SE8       30.67S
$$

COZ069>075-291000-
...SAN LUIS VALLEY/SANGRE DE CRISTO MOUNTAINS...

CITY           SKY/WX    TMP DP  RH WIND       PRES   REMARKS
ALAMOSA        FAIR      50  48  93 N14       30.42R
LA VETA PASS   FAIR      41  39  93 W9G17     30.54S
SAGUACHE       CLOUDY    50  46  87 S9        30.51R
$$

COZ035-036-038>040-291000-
...NORTHERN COLORADO FRONT RANGE...

CITY           SKY/WX    TMP DP  RH WIND       PRES   REMARKS
DENVER INTL AP CLOUDY    62  48  60 S20       30.29R
DMNS CITY PARK   N/A     63  47  54 S13G22    30.30R
AURORA         NOT AVBL
FRONT RANGE AP NOT AVBL
ERIE MUNI ARPT FAIR      65  46  49 S12       30.25R
BOULDER MUN AP FAIR      64  41  42 SE6       30.24S
CENTENNIAL     MOCLDY    61  45  55 S15G24    30.33R
BROOMFIELD     FAIR      63  45  51 S9        30.28S
FORT COLLINS   FAIR      61  46  59 SE6       30.24R
LONGMONT       FAIR      61  51  69 CALM      30.25S
$$

COZ041-046-047-076>085-087-088-291000-
...PIKES PEAK/PALMER DIVIDE AND SOUTHERN FOOTHILLS...

CITY           SKY/WX    TMP DP  RH WIND       PRES   REMARKS
COLO. SPRINGS  LGT RAIN  54  51  90 NW22G31   30.38F
A. F. ACADEMY  LGT RAIN  53  49  87 W8        30.42F
SCHRIEVER AFB  NOT AVBL
ELLICOTT       NOT AVBL
FALCON         RAIN      52  50  93 W18G25    30.42F
FORT CARSON    LGT RAIN  56  49  78 NW17      30.33F
LIMON          FAIR      57  54  89 N6        30.25F
MONUMENT HILL  CLOUDY    50  46  87 SW18G26   30.39F
TRINIDAD       FAIR      57  49  74 N6        30.32S
$$

COZ042>045-048>051-090-091-291000-
...NORTHEAST COLORADO...

CITY           SKY/WX    TMP DP  RH WIND       PRES   REMARKS
GREELEY ARPT   FAIR      63  48  59 SW7       30.24S
AKRON          FAIR      65  48  54 W15       30.24R
BURLINGTON     FAIR      62  57  83 SW7       30.20F
WRAY           NOT AVBL
STERLING       FAIR      59  50  72 W5        30.18R
HOLYOKE        FAIR      61  59  94 SE3       30.16S
FORT MORGAN    FAIR      59  51  75 CALM      30.24R
$$

COZ086-089-092>099-291000-
...SOUTHEAST COLORADO...

CITY           SKY/WX    TMP DP  RH WIND       PRES   REMARKS
PUEBLO         FAIR      63  51  65 N18G28    30.26R
LA JUNTA       FAIR      66  52  60 NW14      30.19S
LAMAR          MOCLDY    68  62  81 SE6       30.15R
SPRINGFIELD      N/A     63  63 100 SW9       30.21R
$$




USA.gov is the U.S. government's official web portal to all federal, state and local government web resources and services.